TimeCST,TemperatureF,Dew PointF,Humidity,Sea Level PressureIn,VisibilityMPH,Wind Direction,Wind SpeedMPH,Gust SpeedMPH,PrecipitationIn,Events,Conditions,WindDirDegrees,DateUTC
12:15 AM,26.6,23.0,86,30.23,7.0,Calm,Calm,-,N/A,,Clear,0,2013-12-15 06:15:00
12:35 AM,26.6,23.0,86,30.22,7.0,Calm,Calm,-,N/A,,Clear,0,2013-12-15 06:35:00
12:55 AM,26.6,21.2,80,30.23,7.0,Calm,Calm,-,N/A,,Clear,0,2013-12-15 06:55:00
1:15 AM,26.6,21.2,80,30.22,7.0,Calm,Calm,-,N/A,,Clear,0,2013-12-15 07:15:00
1:35 AM,24.8,21.2,86,30.22,6.0,Calm,Calm,-,N/A,,Clear,0,2013-12-15 07:35:00
1:55 AM,24.8,21.2,86,30.22,6.0,Calm,Calm,-,N/A,,Clear,0,2013-12-15 07:55:00
2:15 AM,23.0,21.2,93,30.22,5.0,Calm,Calm,-,N/A,,Clear,0,2013-12-15 08:15:00
2:35 AM,23.0,21.2,93,30.22,5.0,Calm,Calm,-,N/A,,Clear,0,2013-12-15 08:35:00
2:55 AM,23.0,21.2,93,30.22,5.0,Calm,Calm,-,N/A,,Clear,0,2013-12-15 08:55:00
3:15 AM,23.0,21.2,93,30.22,5.0,Calm,Calm,-,N/A,,Clear,0,2013-12-15 09:15:00
3:35 AM,23.0,21.2,93,30.21,5.0,Calm,Calm,-,N/A,,Clear,0,2013-12-15 09:35:00
3:55 AM,23.0,21.2,93,30.22,5.0,Calm,Calm,-,N/A,,Clear,0,2013-12-15 09:55:00
4:15 AM,23.0,21.2,93,30.21,5.0,Calm,Calm,-,N/A,,Clear,0,2013-12-15 10:15:00
4:35 AM,23.0,21.2,93,30.21,5.0,Calm,Calm,-,N/A,,Clear,0,2013-12-15 10:35:00
4:55 AM,23.0,21.2,93,30.21,5.0,Calm,Calm,-,N/A,,Clear,0,2013-12-15 10:55:00
5:15 AM,23.0,21.2,93,30.20,5.0,Calm,Calm,-,N/A,,Clear,0,2013-12-15 11:15:00
5:35 AM,23.0,21.2,93,30.19,5.0,Calm,Calm,-,N/A,,Clear,0,2013-12-15 11:35:00
5:55 AM,23.0,21.2,93,30.20,5.0,Calm,Calm,-,N/A,,Clear,0,2013-12-15 11:55:00
6:15 AM,23.0,21.2,93,30.19,5.0,Calm,Calm,-,N/A,,Clear,0,2013-12-15 12:15:00
6:35 AM,23.0,21.2,93,30.20,5.0,Calm,Calm,-,N/A,,Partly Cloudy,0,2013-12-15 12:35:00
6:55 AM,23.0,21.2,93,30.19,5.0,Calm,Calm,-,N/A,,Partly Cloudy,0,2013-12-15 12:55:00
7:15 AM,23.0,21.2,93,30.19,5.0,Calm,Calm,-,N/A,,Clear,0,2013-12-15 13:15:00
7:35 AM,23.0,21.2,93,30.18,5.0,Calm,Calm,-,N/A,,Clear,0,2013-12-15 13:35:00
7:55 AM,23.0,21.2,93,30.17,4.0,Calm,Calm,-,N/A,,Clear,0,2013-12-15 13:55:00
8:15 AM,24.8,21.2,86,30.17,4.0,Calm,Calm,-,N/A,,Clear,0,2013-12-15 14:15:00
8:35 AM,26.6,23.0,86,30.16,5.0,Calm,Calm,-,N/A,,Clear,0,2013-12-15 14:35:00
8:55 AM,26.6,23.0,86,30.16,5.0,Calm,Calm,-,N/A,,Clear,0,2013-12-15 14:55:00
9:15 AM,28.4,24.8,86,30.17,5.0,Calm,Calm,-,N/A,,Clear,0,2013-12-15 15:15:00
9:35 AM,30.2,26.6,86,30.16,6.0,Calm,Calm,-,N/A,,Haze,0,2013-12-15 15:35:00
9:55 AM,32.0,26.6,80,30.16,6.0,Calm,Calm,-,N/A,,Haze,0,2013-12-15 15:55:00
10:15 AM,32.0,26.6,80,30.15,7.0,SSW,11.5,-,N/A,,Clear,200,2013-12-15 16:15:00
10:35 AM,33.8,28.4,81,30.15,8.0,SSW,13.8,21.9,N/A,,Clear,200,2013-12-15 16:35:00
10:55 AM,35.6,30.2,81,30.14,8.0,SSW,11.5,17.3,N/A,,Clear,210,2013-12-15 16:55:00
11:15 AM,37.4,30.2,75,30.13,8.0,SSW,13.8,18.4,N/A,,Clear,210,2013-12-15 17:15:00
11:35 AM,39.2,32.0,75,30.12,8.0,SSW,13.8,20.7,N/A,,Clear,210,2013-12-15 17:35:00
11:55 AM,39.2,32.0,75,30.11,8.0,SSW,11.5,-,N/A,,Clear,210,2013-12-15 17:55:00
12:15 PM,42.8,32.0,66,30.10,9.0,SW,10.4,-,N/A,,Clear,220,2013-12-15 18:15:00
12:35 PM,42.8,32.0,66,30.09,8.0,SW,13.8,-,N/A,,Clear,220,2013-12-15 18:35:00
12:55 PM,44.6,32.0,61,30.08,9.0,SW,12.7,18.4,N/A,,Clear,230,2013-12-15 18:55:00
1:15 PM,44.6,33.8,66,30.07,9.0,SW,13.8,17.3,N/A,,Clear,220,2013-12-15 19:15:00
1:35 PM,44.6,33.8,66,30.07,9.0,WSW,13.8,-,N/A,,Clear,240,2013-12-15 19:35:00
1:55 PM,44.6,33.8,66,30.06,9.0,SW,11.5,-,N/A,,Clear,230,2013-12-15 19:55:00
2:15 PM,46.4,33.8,62,30.06,9.0,WSW,12.7,-,N/A,,Clear,240,2013-12-15 20:15:00
2:35 PM,44.6,33.8,66,30.06,10.0,SW,8.1,-,N/A,,Clear,230,2013-12-15 20:35:00
2:55 PM,46.4,33.8,62,30.05,10.0,SW,11.5,-,N/A,,Clear,230,2013-12-15 20:55:00
3:15 PM,46.4,33.8,62,30.06,10.0,SW,12.7,-,N/A,,Clear,230,2013-12-15 21:15:00
3:35 PM,46.4,33.8,62,30.06,10.0,SW,8.1,-,N/A,,Clear,230,2013-12-15 21:35:00
3:55 PM,46.4,33.8,62,30.06,10.0,SW,6.9,-,N/A,,Clear,230,2013-12-15 21:55:00
4:15 PM,46.4,33.8,62,30.06,10.0,SW,9.2,-,N/A,,Clear,230,2013-12-15 22:15:00
4:35 PM,46.4,33.8,62,30.05,10.0,SSW,6.9,-,N/A,,Clear,210,2013-12-15 22:35:00
4:55 PM,44.6,33.8,66,30.05,10.0,SSW,4.6,-,N/A,,Clear,210,2013-12-15 22:55:00
5:15 PM,42.8,32.0,66,30.06,10.0,SSW,4.6,-,N/A,,Clear,210,2013-12-15 23:15:00
5:35 PM,44.6,33.8,66,30.05,10.0,SSW,4.6,-,N/A,,Partly Cloudy,200,2013-12-15 23:35:00
5:55 PM,42.8,33.8,70,30.05,10.0,SSW,5.8,-,N/A,,Partly Cloudy,210,2013-12-15 23:55:00
6:15 PM,42.8,33.8,70,30.04,10.0,SSW,5.8,-,N/A,,Partly Cloudy,200,2013-12-16 00:15:00
6:35 PM,42.8,33.8,70,30.03,10.0,South,6.9,-,N/A,,Scattered Clouds,190,2013-12-16 00:35:00
6:55 PM,42.8,33.8,70,30.03,10.0,South,5.8,-,N/A,,Mostly Cloudy,190,2013-12-16 00:55:00
7:15 PM,42.8,33.8,70,30.03,10.0,South,6.9,-,N/A,,Mostly Cloudy,190,2013-12-16 01:15:00
7:35 PM,42.8,33.8,70,30.04,10.0,SSW,5.8,-,N/A,,Mostly Cloudy,210,2013-12-16 01:35:00
7:55 PM,42.8,33.8,70,30.03,10.0,SSW,6.9,-,N/A,,Mostly Cloudy,200,2013-12-16 01:55:00
8:15 PM,42.8,33.8,70,30.03,10.0,SSW,6.9,-,N/A,,Overcast,210,2013-12-16 02:15:00
8:35 PM,44.6,33.8,66,30.03,10.0,SSW,10.4,-,N/A,,Mostly Cloudy,210,2013-12-16 02:35:00
8:55 PM,44.6,33.8,66,30.03,10.0,SSW,10.4,-,N/A,,Clear,210,2013-12-16 02:55:00
9:15 PM,44.6,33.8,66,30.03,10.0,SSW,11.5,-,N/A,,Scattered Clouds,210,2013-12-16 03:15:00
9:35 PM,44.6,33.8,66,30.02,10.0,SSW,11.5,-,N/A,,Scattered Clouds,210,2013-12-16 03:35:00
9:55 PM,42.8,33.8,70,30.02,10.0,SSW,13.8,-,N/A,,Mostly Cloudy,210,2013-12-16 03:55:00
10:15 PM,42.8,33.8,70,30.01,10.0,SW,12.7,-,N/A,,Partly Cloudy,220,2013-12-16 04:15:00
10:35 PM,42.8,33.8,70,30.01,10.0,SW,11.5,-,N/A,,Clear,220,2013-12-16 04:35:00
10:55 PM,41.0,33.8,76,30.01,10.0,SW,11.5,-,N/A,,Clear,220,2013-12-16 04:55:00
11:15 PM,41.0,33.8,76,30.01,10.0,SW,11.5,-,N/A,,Clear,220,2013-12-16 05:15:00
11:35 PM,41.0,32.0,70,30.01,10.0,SW,11.5,-,N/A,,Clear,220,2013-12-16 05:35:00
11:55 PM,41.0,32.0,70,30.01,10.0,SW,11.5,-,N/A,,Clear,220,2013-12-16 05:55:00